Location: Arlington
(40.6323°N, 74.1651°W)
Time: 03:07:48
(UTC+00:00)

ATLAS 5 CENTAUR R/B - Pass Details

Date: 22 November 2019
Orbit: 266 x 12999 km, 20.1° (Epoch: 08 December)

Event Time Altitude Azimuth Distance (km) Brightness Sun altitude
Rises 23:41:00 0° 218° (SW) 2,897 5.1 -23.8°
Reaches altitude 10° 23:43:41 10° 191° (SSW) 2,640 4.5 -24.3°
Maximum altitude 23:47:24 15° 156° (SSE) 3,199 4.5 -25.0°
Enters shadow 23:51:14 13° 136° (SE) 4,366 5.0 -25.8°
